#timestamp,LO_Frequency,Hit,StdDev 
1560578415.3,286046999.2,N
1560578435.1,286046997.9,N
1560578455.9,286046999.4,N
1560578475.7,286047000.5,N
1560578495.5,286047000.5,N
1560578515.4,286047000.6,N
1560578535.2,286046999.8,N
1560578555.0,286047001.7,N
1560578555.9,286047001.7,N
1560578575.8,286047003.2,N
1560578595.6,286047002.9,N
1560578615.4,286047005.1,Y
1560578635.3,286047004.7,P
1560578655.1,286047004.9,N
1560578656.0,286047004.9,N
1560578675.8,286047005.2,N
1560578695.7,286047006.0,Y
1560578715.5,286047000.1,P
1560578735.3,286047002.5,N
1560578755.2,286047002.2,N
1560578775.9,286046999.8,N
1560578795.7,286047000.6,N
1560578815.6,286047001.0,N
1560578835.4,286046999.6,N
1560578855.2,286046997.6,N
1560578875.1,286046996.5,N
1560578876.0,286046996.5,N
1560578895.8,286046996.8,N
1560578915.6,286046996.2,N
1560578935.5,286046993.3,N
1560578955.3,286046993.3,N
1560578975.1,286046995.2,N
1560578995.9,286046997.2,N
1560579015.7,286046999.6,N
1560579035.5,286046998.9,N
1560579055.4,286046998.2,N
1560579075.2,286046998.6,N
1560579095.0,286046996.9,N
1560579095.9,286046996.9,N
1560579115.8,286046996.7,N
1560579135.6,286046998.4,N
1560579155.4,286047001.1,N
1560579175.3,286047001.0,N
1560579195.1,286047000.5,N
1560579215.8,286047000.4,N
1560579235.7,286046999.8,N
1560579255.5,286047001.2,N
1560579275.3,286047000.7,N
1560579295.2,286047001.1,N
1560579315.0,286047001.2,N
1560579315.9,286047001.2,N
1560579335.7,286046998.4,N
1560579355.6,286046999.5,N
1560579375.4,286046999.0,N
1560579395.3,286046999.3,N
1560579415.1,286046999.6,N
1560579416.0,286046999.6,N
1560579435.8,286046999.0,N
1560579455.7,286046997.9,N
1560579475.5,286046997.4,N
1560579495.3,286046996.5,N
1560579515.2,286046997.0,N
1560579535.9,286046999.0,N
1560579555.7,286046999.0,N
1560579575.6,286046999.2,N
1560579595.4,286046999.3,N
1560579615.2,286046996.6,N
1560579635.1,286046994.9,Y
1560579636.0,286046994.9,P
1560579655.8,286046995.1,N
1560579675.6,286046997.2,N
1560579695.5,286046995.1,N
1560579715.3,286046995.1,N
1560579735.1,286046995.1,Y
1560579755.9,286047002.8,P
1560579775.7,286047001.5,N
1560579795.5,286047005.0,N
1560579815.4,286047007.3,N
1560579835.2,286047006.8,N
1560579855.0,286047007.0,N
1560579855.9,286047007.0,N
1560579875.8,286047007.0,N
1560579895.6,286047008.9,N
1560579915.4,286047008.5,N
1560579935.3,286047009.2,N
1560579955.1,286047006.6,N
1560579956.0,286047006.6,N
1560579975.8,286047008.3,N
1560579995.7,286047008.3,N
1560580015.5,286047009.8,N
1560580035.3,286047007.8,N
1560580055.2,286047010.3,Y
1560580075.9,286047004.4,P
1560580095.7,286047001.4,N
1560580115.6,286047004.3,N
1560580135.4,286047002.0,N
1560580155.2,286047004.0,N
1560580175.1,286047004.3,N
1560580176.0,286047004.3,N
1560580195.8,286047001.7,N
1560580215.6,286047003.9,N
1560580235.5,286047003.1,N
1560580255.3,286047005.5,Y
1560580275.1,286047002.8,P
1560580295.9,286047002.7,P
1560580315.7,286047002.6,P
1560580335.5,286047002.8,Y
1560580355.4,286046998.3,P
1560580375.2,286046998.8,N
1560580395.0,286047001.2,N
1560580395.9,286047001.2,N
1560580445.8,286047004.0,E
1560580455.7,286047000.1,N
1560580475.5,286046996.9,P
1560580495.4,286046996.5,N
1560580515.2,286046997.9,N
1560580535.1,286046995.8,Y
1560580536.0,286046995.8,P
1560580555.8,286046996.5,P
1560580575.6,286046999.1,N
1560580595.5,286046997.0,N
1560580615.3,286046996.5,Y
1560580635.1,286047000.5,P
1560580655.9,286047002.4,N
1560580675.7,286047001.4,N
1560580695.5,286047003.1,N
1560580715.4,286047003.6,N
1560580735.2,286047005.6,N
1560580755.0,286047007.3,N
1560580755.9,286047007.3,N
1560580775.8,286047007.1,N
1560580795.6,286047005.2,N
1560580815.4,286047005.6,N
1560580835.3,286047005.3,N
1560580855.1,286047003.6,N
1560580856.0,286047011.9,Y
1560580875.8,286046997.7,P
1560580895.7,286046996.2,N
1560580915.5,286046993.6,N
1560580935.3,286046993.3,N
1560580955.2,286046996.2,N
1560580975.9,286046995.7,N
1560580995.7,286046995.1,N
1560581015.6,286046994.9,N
1560581035.4,286046995.5,N
1560581055.2,286046995.3,N
1560581075.1,286046993.5,N
1560581076.0,286046993.5,N
1560581095.8,286046994.6,N
1560581115.6,286046993.6,N
1560581135.5,286046992.0,Y
1560581155.3,286046998.9,P
1560581175.1,286046999.4,N
1560581195.9,286046998.3,N
1560581215.7,286047001.2,N
1560581235.5,286046998.6,N
1560581255.4,286046998.5,N
1560581275.2,286046999.0,N
1560581295.0,286046999.6,N
1560581295.9,286046999.6,N
1560581315.8,286046997.3,N
1560581335.6,286046996.8,N
1560581355.4,286046997.9,N
1560581375.3,286046994.9,Y
1560581395.1,286046998.8,P
1560581396.0,286046998.8,P
1560581415.8,286046998.3,P
1560581435.7,286047001.2,Y
1560581455.5,286047002.3,P
1560581475.3,286047001.0,N
1560581495.2,286047000.7,N
1560581515.9,286046998.2,N
1560581535.7,286046999.0,N
1560581555.6,286046996.5,N
1560581575.4,286046999.2,N
1560581595.2,286046996.6,N
1560581615.1,286046997.4,N
1560581616.0,286046997.4,N
1560581635.8,286046997.7,N
1560581655.6,286046994.9,N
1560581675.5,286046995.2,N
1560581695.3,286046996.1,N
1560581715.1,286046995.7,N
1560581735.9,286046995.8,N
1560581755.7,286046996.4,N
1560581775.5,286046995.6,N
1560581795.4,286046993.3,Y
1560581815.2,286046997.3,P
1560581835.0,286046997.3,P
1560581835.9,286046997.3,P
1560581855.8,286046998.2,Y
1560581875.6,286047002.8,P
1560581895.4,286047000.5,N
1560581915.3,286046999.7,N
1560581935.1,286046998.3,N
1560581955.8,286046998.8,N
1560581975.7,286047000.4,N
1560581995.5,286047002.4,N
